Location: West Cummington
(42.4920°N, 72.9680°W)
Time: 21:37:51
(UTC-04:00)

Cosmos 1703 Rocket - Visible Passes

Search period start: 26 May 2015 00:00
Search period end: 05 June 2015 00:00
Orbit: 607 x 634 km, 82.5° (Epoch: 25 May)

Date Brightness Start Highest point End Pass type
(mag) Time Alt. Az. Time Alt. Az. Time Alt. Az.
26 May 3.8 02:37:10 10° N 02:41:40 69° E 02:43:12 40° SSE visible
26 May 5.7 04:17:50 10° WNW 04:19:02 11° W 04:19:58 10° W visible
27 May 6.2 01:19:03 10° NE 01:21:00 13° ENE 01:23:11 10° E visible
27 May 3.6 02:55:01 10° NNW 02:59:28 62° W 03:00:36 45° SSW visible
28 May 5.5 01:35:39 10° NNE 01:39:10 23° ENE 01:40:52 19° ESE visible
28 May 4.4 03:13:09 10° NNW 03:17:12 33° W 03:18:02 30° WSW visible
29 May 4.6 01:52:57 10° N 01:57:12 40° ENE 01:58:19 34° ESE visible
29 May 5.2 03:31:43 10° NW 03:34:50 18° W 03:35:29 18° W visible
30 May 3.6 02:10:35 10° N 02:15:06 77° E 02:15:47 61° SE visible
31 May 6.0 00:52:11 10° NE 00:54:29 14° ENE 00:56:07 12° E visible
31 May 3.7 02:28:28 10° NNW 02:32:53 56° W 02:33:17 54° WSW visible
01 Jun 5.3 01:08:57 10° NNE 01:12:38 25° ENE 01:13:37 23° E visible
01 Jun 4.6 02:46:39 10° NNW 02:50:35 30° W 02:50:48 30° W visible
02 Jun 4.3 01:26:20 10° N 01:30:38 44° ENE 01:31:09 43° E visible
02 Jun 5.4 03:05:19 10° NW 03:08:13 17° W 03:08:20 17° W visible
03 Jun 3.4 01:44:00 10° N 01:48:31 85° E 01:48:42 81° SE visible
04 Jun 5.8 00:25:21 10° NNE 00:27:58 15° ENE 00:29:06 14° E visible
04 Jun 3.9 02:01:56 10° NNW 02:06:16 50° W 02:06:16 50° W visible
